QPF
0.00 0.00 0.00 0.00 0.00 0.00 0.00 0.00 0.00 0.00 0.00 0.00 0.00 0.00 0.00 0.00 0.00 0.00 0.00 0.00 0.00 0.00 0.00 0.00 0.00 0.00 0.00 0.00 0.00 0.00 0.00 0.00 0.00 0.00 0.00 0.00 0.00 0.00 0.01 0.01 0.02 0.02 0.03
0.00 0.00 0.00 0.00 0.00 0.00 0.00 0.00 0.00 0.00 0.00 0.00 0.00 0.00 0.00 0.00 0.00 0.00 0.00 0.00 0.00 0.00 0.00 0.00 0.00 0.00 0.00 0.00 0.00 0.00 0.00 0.00 0.00 0.00 0.00 0.00 0.00 0.00 0.00 0.00 0.01 0.01 0.01
0.00 0.00 0.00 0.00 0.00 0.00 0.00 0.00 0.00 0.00 0.00 0.00 0.00 0.00 0.00 0.00 0.00 0.00 0.00 0.00 0.00 0.00 0.00 0.00 0.00 0.00 0.00 0.00 0.00 0.00 0.00 0.00 0.00 0.00 0.00 0.00 0.00 0.00 0.00 0.00 0.01 0.01 0.01
0.00 0.00 0.00 0.00 0.00 0.00 0.00 0.00 0.00 0.00 0.00 0.00 0.00 0.00 0.00 0.00 0.00 0.00 0.00 0.00 0.00 0.00 0.00 0.00 0.00 0.00 0.00 0.00 0.00 0.00 0.00 0.00 0.00 0.00 0.00 0.00 0.00 0.00 0.00 0.01 0.01 0.01 0.01
0.00 0.00 0.00 0.00 0.00 0.00 0.00 0.00 0.00 0.00 0.00 0.00 0.00 0.00 0.00 0.00 0.00 0.00 0.00 0.00 0.00 0.00 0.00 0.00 0.00 0.00 0.00 0.00 0.00 0.00 0.00 0.00 0.00 0.00 0.00 0.00 0.00 0.01 0.01 0.01 0.01 0.01 0.01
0.00 0.00 0.00 0.00 0.00 0.00 0.00 0.00 0.00 0.00 0.00 0.00 0.00 0.00 0.00 0.00 0.00 0.00 0.00 0.00 0.00 0.00 0.00 0.00 0.00 0.00 0.00 0.00 0.00 0.00 0.00 0.00 0.00 0.00 0.00 0.00 0.01 0.01 0.01 0.01 0.01 0.02 0.02
0.00 0.00 0.00 0.00 0.00 0.00 0.00 0.00 0.00 0.00 0.00 0.00 0.00 0.00 0.00 0.00 0.00 0.00 0.00 0.00 0.00 0.00 0.00 0.00 0.00 0.00 0.00 0.00 0.00 0.00 0.00 0.00 0.00 0.00 0.00 0.00 0.01 0.01 0.01 0.01 0.02 0.02 0.02
0.00 0.00 0.00 0.00 0.00 0.00 0.00 0.00 0.00 0.00 0.00 0.00 0.00 0.00 0.00 0.00 0.00 0.00 0.00 0.00 0.00 0.00 0.00 0.00 0.00 0.00 0.00 0.00 0.00 0.00 0.00 0.00 0.00 0.00 0.00 0.00 0.01 0.01 0.01 0.02 0.02 0.02 0.02
0.00 0.00 0.00 0.00 0.00 0.00 0.00 0.00 0.00 0.00 0.00 0.00 0.00 0.00 0.00 0.00 0.00 0.00 0.00 0.00 0.00 0.00 0.00 0.00 0.00 0.00 0.00 0.00 0.00 0.00 0.00 0.00 0.00 0.00 0.00 0.01 0.01 0.01 0.02 0.02 0.02 0.02 0.02
0.00 0.00 0.00 0.00 0.00 0.00 0.00 0.00 0.00 0.00 0.00 0.00 0.00 0.00 0.00 0.00 0.00 0.00 0.00 0.00 0.00 0.00 0.00 0.00 0.00 0.00 0.00 0.00 0.00 0.00 0.00 0.00 0.00 0.00 0.00 0.00 0.01 0.01 0.02 0.02 0.02 0.02 0.02
0.00 0.00 0.00 0.00 0.00 0.00 0.00 0.00 0.00 0.00 0.00 0.00 0.00 0.00 0.00 0.00 0.00 0.00 0.00 0.00 0.00 0.00 0.00 0.00 0.00 0.00 0.00 0.00 0.00 0.00 0.00 0.00 0.00 0.00 0.00 0.00 0.01 0.01 0.01 0.02 0.02 0.02 0.02
0.00 0.00 0.00 0.00 0.00 0.00 0.00 0.00 0.00 0.00 0.00 0.00 0.00 0.00 0.00 0.00 0.00 0.00 0.00 0.00 0.00 0.00 0.00 0.00 0.00 0.00 0.00 0.00 0.00 0.00 0.00 0.00 0.00 0.00 0.00 0.00 0.00 0.01 0.01 0.02 0.02 0.02 0.02
0.00 0.00 0.00 0.00 0.00 0.00 0.00 0.00 0.00 0.00 0.00 0.00 0.00 0.00 0.00 0.00 0.00 0.00 0.00 0.00 0.00 0.00 0.00 0.00 0.00 0.00 0.00 0.00 0.00 0.00 0.00 0.00 0.00 0.00 0.00 0.00 0.00 0.01 0.01 0.01 0.02 0.02 0.03
0.00 0.00 0.00 0.00 0.00 0.00 0.00 0.00 0.00 0.00 0.00 0.00 0.00 0.00 0.00 0.00 0.00 0.00 0.00 0.00 0.00 0.00 0.00 0.00 0.00 0.00 0.00 0.00 0.00 0.00 0.00 0.00 0.00 0.00 0.00 0.00 0.00 0.01 0.01 0.02 0.02 0.03 0.03
0.00 0.00 0.00 0.00 0.00 0.00 0.00 0.00 0.00 0.00 0.00 0.00 0.00 0.00 0.00 0.00 0.00 0.00 0.00 0.00 0.00 0.00 0.00 0.00 0.00 0.00 0.00 0.00 0.00 0.00 0.00 0.00 0.00 0.00 0.00 0.00 0.00 0.01 0.02 0.02 0.02 0.03 0.03
0.00 0.00 0.00 0.00 0.00 0.00 0.00 0.00 0.00 0.00 0.00 0.00 0.00 0.00 0.00 0.00 0.00 0.00 0.00 0.00 0.00 0.00 0.00 0.00 0.00 0.00 0.00 0.00 0.00 0.00 0.00 0.00 0.00 0.00 0.00 0.00 0.01 0.02 0.02 0.02 0.03 0.03 0.04
0.00 0.00 0.00 0.00 0.00 0.00 0.00 0.00 0.00 0.00 0.00 0.00 0.00 0.00 0.00 0.00 0.00 0.00 0.00 0.00 0.00 0.00 0.00 0.00 0.00 0.00 0.00 0.00 0.00 0.00 0.00 0.00 0.00 0.00 0.00 0.01 0.02 0.02 0.02 0.02 0.03 0.03 0.04
0.00 0.00 0.00 0.00 0.00 0.00 0.00 0.00 0.00 0.00 0.00 0.00 0.00 0.00 0.00 0.00 0.00 0.00 0.00 0.00 0.00 0.00 0.00 0.00 0.00 0.00 0.00 0.00 0.00 0.00 0.00 0.00 0.00 0.00 0.00 0.01 0.01 0.02 0.02 0.02 0.02 0.03 0.03
0.00 0.00 0.00 0.00 0.00 0.00 0.00 0.00 0.00 0.00 0.00 0.00 0.00 0.00 0.00 0.00 0.00 0.00 0.00 0.00 0.00 0.00 0.00 0.00 0.00 0.00 0.00 0.00 0.00 0.00 0.00 0.00 0.00 0.00 0.00 0.00 0.00 0.01 0.02 0.02 0.02 0.02 0.02
0.00 0.00 0.00 0.00 0.00 0.00 0.00 0.00 0.00 0.00 0.00 0.00 0.00 0.00 0.00 0.00 0.00 0.00 0.00 0.00 0.00 0.00 0.00 0.00 0.00 0.00 0.00 0.00 0.00 0.00 0.00 0.00 0.00 0.00 0.00 0.00 0.01 0.01 0.01 0.01 0.01 0.01 0.01
0.00 0.00 0.00 0.00 0.00 0.00 0.00 0.00 0.00 0.00 0.00 0.00 0.00 0.00 0.00 0.00 0.00 0.00 0.00 0.00 0.00 0.00 0.00 0.00 0.00 0.00 0.00 0.00 0.00 0.00 0.00 0.00 0.00 0.00 0.00 0.00 0.00 0.00 0.00 0.00 0.00 0.01 0.01
0.00 0.00 0.00 0.00 0.00 0.00 0.00 0.00 0.00 0.00 0.00 0.00 0.00 0.00 0.00 0.00 0.00 0.00 0.00 0.00 0.00 0.01 0.01 0.01 0.01 0.01 0.00 0.00 0.00 0.00 0.01 0.01 0.01 0.00 0.00 0.00 0.00 0.00 0.00 0.00 0.00 0.01 0.02
0.00 0.00 0.00 0.00 0.00 0.00 0.00 0.00 0.00 0.00 0.00 0.00 0.00 0.00 0.00 0.00 0.00 0.00 0.00 0.00 0.00 0.01 0.01 0.01 0.01 0.00 0.00 0.00 0.01 0.02 0.03 0.04 0.03 0.01 0.02 0.02 0.00 0.00 0.00 0.00 0.00 0.01 0.02
0.00 0.00 0.00 0.00 0.00 0.00 0.00 0.00 0.00 0.00 0.00 0.00 0.00 0.00 0.00 0.00 0.00 0.00 0.00 0.00 0.00 0.00 0.00 0.00 0.00 0.01 0.01 0.02 0.03 0.05 0.06 0.06 0.03 0.02 0.02 0.02 0.00 0.00 0.00 0.00 0.00 0.01 0.02
0.00 0.00 0.00 0.00 0.00 0.00 0.00 0.00 0.00 0.00 0.00 0.00 0.00 0.00 0.00 0.00 0.00 0.01 0.01 0.01 0.00 0.00 0.00 0.01 0.01 0.02 0.03 0.03 0.04 0.04 0.04 0.05 0.03 0.01 0.00 0.01 0.00 0.00 0.00 0.00 0.00 0.00 0.01
0.00 0.00 0.00 0.00 0.00 0.00 0.00 0.00 0.00 0.00 0.00 0.00 0.00 0.00 0.00 0.00 0.01 0.01 0.01 0.01 0.01 0.01 0.01 0.01 0.01 0.01 0.01 0.01 0.01 0.02 0.02 0.03 0.03 0.02 0.01 0.01 0.01 0.01 0.01 0.00 0.00 0.00 0.00
MSLP
1021.26 1021.40 1021.45 1021.45 1021.44 1021.45 1021.50 1021.59 1021.69 1021.79 1021.85 1021.86 1021.82 1021.75 1021.67 1021.60 1021.57 1021.58 1021.63 1021.70 1021.76 1021.78 1021.76 1021.68 1021.56 1021.41 1021.26 1021.11 1020.97 1020.85 1020.74 1020.61 1020.47 1020.31 1020.12 1019.91 1019.69 1019.46 1019.22 1018.97 1018.71 1018.44 1018.15
1020.94 1021.08 1021.16 1021.20 1021.26 1021.34 1021.46 1021.61 1021.78 1021.92 1022.02 1022.05 1022.03 1021.96 1021.88 1021.81 1021.78 1021.79 1021.84 1021.92 1021.99 1022.04 1022.04 1021.99 1021.89 1021.75 1021.59 1021.42 1021.25 1021.09 1020.94 1020.79 1020.63 1020.47 1020.29 1020.09 1019.89 1019.67 1019.43 1019.17 1018.89 1018.58 1018.25
1020.53 1020.68 1020.81 1020.92 1021.06 1021.23 1021.44 1021.67 1021.90 1022.09 1022.23 1022.30 1022.30 1022.26 1022.19 1022.12 1022.08 1022.08 1022.12 1022.19 1022.26 1022.31 1022.32 1022.29 1022.20 1022.07 1021.91 1021.73 1021.55 1021.36 1021.17 1020.99 1020.80 1020.62 1020.43 1020.23 1020.02 1019.80 1019.56 1019.29 1018.99 1018.65 1018.29
1020.07 1020.26 1020.45 1020.64 1020.87 1021.14 1021.43 1021.74 1022.04 1022.29 1022.48 1022.59 1022.63 1022.61 1022.56 1022.50 1022.46 1022.45 1022.47 1022.51 1022.56 1022.60 1022.60 1022.57 1022.50 1022.39 1022.24 1022.06 1021.87 1021.66 1021.44 1021.22 1021.00 1020.77 1020.55 1020.32 1020.09 1019.85 1019.59 1019.31 1018.99 1018.63 1018.25
1019.63 1019.87 1020.12 1020.40 1020.72 1021.08 1021.45 1021.83 1022.18 1022.48 1022.71 1022.86 1022.95 1022.97 1022.96 1022.93 1022.89 1022.88 1022.87 1022.88 1022.89 1022.90 1022.89 1022.85 1022.78 1022.69 1022.55 1022.39 1022.20 1021.98 1021.74 1021.49 1021.21 1020.93 1020.66 1020.38 1020.11 1019.83 1019.54 1019.23 1018.89 1018.51 1018.12
1019.24 1019.53 1019.85 1020.22 1020.62 1021.04 1021.47 1021.89 1022.28 1022.62 1022.89 1023.09 1023.22 1023.31 1023.35 1023.36 1023.35 1023.33 1023.31 1023.29 1023.26 1023.22 1023.18 1023.12 1023.05 1022.96 1022.85 1022.70 1022.53 1022.31 1022.05 1021.76 1021.44 1021.10 1020.76 1020.42 1020.09 1019.76 1019.43 1019.08 1018.72 1018.32 1017.91
1018.91 1019.26 1019.65 1020.09 1020.54 1021.01 1021.48 1021.92 1022.32 1022.68 1022.98 1023.22 1023.42 1023.57 1023.68 1023.75 1023.79 1023.79 1023.76 1023.71 1023.64 1023.55 1023.46 1023.37 1023.29 1023.20 1023.09 1022.97 1022.81 1022.59 1022.33 1022.01 1021.65 1021.26 1020.86 1020.46 1020.06 1019.68 1019.29 1018.91 1018.52 1018.10 1017.67
1018.65 1019.06 1019.51 1019.99 1020.48 1020.98 1021.45 1021.89 1022.29 1022.64 1022.96 1023.25 1023.51 1023.74 1023.93 1024.08 1024.18 1024.21 1024.19 1024.12 1024.01 1023.87 1023.73 1023.59 1023.48 1023.37 1023.27 1023.16 1023.01 1022.80 1022.54 1022.21 1021.82 1021.40 1020.94 1020.49 1020.03 1019.60 1019.17 1018.75 1018.33 1017.89 1017.45
1018.43 1018.89 1019.39 1019.90 1020.42 1020.91 1021.37 1021.79 1022.17 1022.52 1022.85 1023.17 1023.49 1023.80 1024.09 1024.32 1024.49 1024.58 1024.57 1024.49 1024.35 1024.16 1023.97 1023.78 1023.62 1023.49 1023.37 1023.25 1023.11 1022.91 1022.65 1022.32 1021.93 1021.48 1021.00 1020.50 1020.01 1019.54 1019.07 1018.62 1018.17 1017.72 1017.25
1018.22 1018.73 1019.26 1019.81 1020.33 1020.82 1021.26 1021.65 1022.01 1022.34 1022.68 1023.03 1023.41 1023.79 1024.15 1024.47 1024.71 1024.85 1024.88 1024.81 1024.64 1024.42 1024.17 1023.93 1023.72 1023.55 1023.40 1023.27 1023.11 1022.92 1022.67 1022.34 1021.95 1021.50 1021.01 1020.50 1019.99 1019.49 1019.01 1018.53 1018.05 1017.57 1017.09
1017.98 1018.53 1019.11 1019.68 1020.21 1020.70 1021.12 1021.49 1021.82 1022.15 1022.49 1022.86 1023.27 1023.71 1024.14 1024.53 1024.84 1025.04 1025.10 1025.04 1024.87 1024.62 1024.34 1024.06 1023.80 1023.58 1023.39 1023.22 1023.05 1022.85 1022.59 1022.27 1021.89 1021.45 1020.97 1020.47 1019.96 1019.45 1018.94 1018.44 1017.94 1017.44 1016.94
1017.69 1018.29 1018.90 1019.50 1020.05 1020.55 1020.97 1021.33 1021.65 1021.97 1022.31 1022.69 1023.13 1023.60 1024.07 1024.51 1024.87 1025.11 1025.22 1025.18 1025.02 1024.78 1024.48 1024.16 1023.86 1023.60 1023.37 1023.16 1022.95 1022.73 1022.46 1022.14 1021.76 1021.33 1020.87 1020.38 1019.88 1019.37 1018.85 1018.34 1017.81 1017.28 1016.74
1017.35 1017.99 1018.64 1019.28 1019.86 1020.37 1020.81 1021.18 1021.51 1021.82 1022.16 1022.54 1022.98 1023.46 1023.95 1024.41 1024.80 1025.08 1025.22 1025.22 1025.09 1024.86 1024.57 1024.25 1023.93 1023.63 1023.36 1023.11 1022.85 1022.58 1022.29 1021.95 1021.57 1021.15 1020.70 1020.23 1019.73 1019.23 1018.70 1018.16 1017.61 1017.04 1016.46
1016.95 1017.63 1018.33 1019.00 1019.62 1020.17 1020.64 1021.03 1021.37 1021.69 1022.03 1022.40 1022.82 1023.28 1023.76 1024.22 1024.62 1024.92 1025.09 1025.13 1025.05 1024.87 1024.61 1024.31 1024.00 1023.68 1023.37 1023.07 1022.76 1022.44 1022.10 1021.73 1021.33 1020.91 1020.46 1019.99 1019.51 1019.00 1018.46 1017.90 1017.31 1016.70 1016.08
1016.51 1017.23 1017.95 1018.66 1019.33 1019.92 1020.42 1020.85 1021.22 1021.55 1021.88 1022.24 1022.63 1023.06 1023.50 1023.93 1024.32 1024.63 1024.83 1024.92 1024.90 1024.78 1024.58 1024.32 1024.03 1023.71 1023.38 1023.03 1022.67 1022.29 1021.89 1021.48 1021.05 1020.60 1020.15 1019.68 1019.19 1018.68 1018.13 1017.55 1016.92 1016.26 1015.58
1016.06 1016.79 1017.54 1018.27 1018.97 1019.60 1020.15 1020.61 1021.01 1021.36 1021.69 1022.02 1022.38 1022.76 1023.15 1023.54 1023.90 1024.20 1024.43 1024.56 1024.60 1024.56 1024.43 1024.23 1023.98 1023.68 1023.34 1022.97 1022.55 1022.12 1021.66 1021.19 1020.72 1020.25 1019.77 1019.30 1018.81 1018.29 1017.73 1017.12 1016.46 1015.75 1015.02
1015.60 1016.33 1017.08 1017.83 1018.54 1019.20 1019.78 1020.28 1020.70 1021.07 1021.40 1021.72 1022.04 1022.37 1022.72 1023.05 1023.37 1023.66 1023.89 1024.06 1024.16 1024.19 1024.13 1024.01 1023.81 1023.55 1023.21 1022.82 1022.38 1021.89 1021.38 1020.87 1020.35 1019.85 1019.36 1018.88 1018.38 1017.85 1017.29 1016.66 1015.97 1015.23 1014.45
1015.15 1015.86 1016.60 1017.33 1018.04 1018.71 1019.31 1019.83 1020.29 1020.67 1021.01 1021.32 1021.62 1021.91 1022.20 1022.49 1022.77 1023.03 1023.26 1023.45 1023.59 1023.67 1023.69 1023.63 1023.49 1023.27 1022.96 1022.57 1022.11 1021.60 1021.06 1020.51 1019.97 1019.44 1018.94 1018.45 1017.95 1017.42 1016.85 1016.22 1015.51 1014.75 1013.94
1014.73 1015.40 1016.10 1016.80 1017.49 1018.15 1018.75 1019.29 1019.77 1020.17 1020.53 1020.84 1021.12 1021.38 1021.64 1021.88 1022.12 1022.35 1022.56 1022.75 1022.91 1023.03 1023.10 1023.10 1023.01 1022.84 1022.56 1022.19 1021.75 1021.24 1020.69 1020.13 1019.58 1019.05 1018.54 1018.05 1017.56 1017.04 1016.47 1015.84 1015.13 1014.35 1013.52
1014.33 1014.95 1015.60 1016.26 1016.91 1017.54 1018.13 1018.68 1019.17 1019.60 1019.97 1020.30 1020.58 1020.83 1021.06 1021.27 1021.47 1021.66 1021.84 1022.02 1022.18 1022.31 1022.40 1022.44 1022.40 1022.27 1022.04 1021.71 1021.30 1020.82 1020.29 1019.75 1019.22 1018.70 1018.21 1017.73 1017.24 1016.73 1016.17 1015.54 1014.83 1014.05 1013.22
1013.94 1014.53 1015.12 1015.73 1016.33 1016.93 1017.50 1018.04 1018.54 1018.99 1019.38 1019.73 1020.03 1020.29 1020.51 1020.69 1020.86 1021.01 1021.15 1021.29 1021.43 1021.55 1021.65 1021.70 1021.69 1021.60 1021.43 1021.16 1020.80 1020.38 1019.90 1019.40 1018.90 1018.41 1017.94 1017.47 1017.00 1016.50 1015.95 1015.33 1014.63 1013.85 1013.03
1013.59 1014.13 1014.68 1015.24 1015.79 1016.35 1016.89 1017.41 1017.91 1018.38 1018.80 1019.18 1019.50 1019.78 1020.00 1020.17 1020.31 1020.42 1020.52 1020.61 1020.71 1020.80 1020.88 1020.94 1020.95 1020.90 1020.78 1020.58 1020.29 1019.94 1019.54 1019.10 1018.65 1018.20 1017.75 1017.30 1016.84 1016.34 1015.79 1015.17 1014.48 1013.72 1012.91
1013.27 1013.78 1014.30 1014.81 1015.32 1015.82 1016.33 1016.84 1017.33 1017.80 1018.24 1018.65 1019.00 1019.29 1019.53 1019.70 1019.82 1019.90 1019.95 1020.00 1020.04 1020.09 1020.15 1020.20 1020.23 1020.21 1020.15 1020.01 1019.81 1019.54 1019.22 1018.85 1018.45 1018.04 1017.62 1017.18 1016.72 1016.22 1015.67 1015.06 1014.37 1013.63 1012.83
1013.00 1013.50 1013.98 1014.45 1014.92 1015.38 1015.85 1016.32 1016.79 1017.26 1017.71 1018.14 1018.51 1018.83 1019.08 1019.25 1019.37 1019.43 1019.45 1019.45 1019.45 1019.46 1019.49 1019.53 1019.56 1019.58 1019.56 1019.50 1019.37 1019.18 1018.93 1018.63 1018.29 1017.92 1017.52 1017.09 1016.63 1016.12 1015.57 1014.95 1014.27 1013.54 1012.78
1012.78 1013.27 1013.73 1014.18 1014.60 1015.02 1015.44 1015.87 1016.31 1016.76 1017.20 1017.63 1018.02 1018.35 1018.62 1018.81 1018.93 1018.97 1018.97 1018.95 1018.92 1018.90 1018.91 1018.94 1018.98 1019.02 1019.04 1019.03 1018.97 1018.85 1018.67 1018.43 1018.13 1017.79 1017.41 1016.98 1016.52 1016.01 1015.45 1014.84 1014.17 1013.47 1012.73
1012.63 1013.12 1013.56 1013.97 1014.35 1014.71 1015.08 1015.46 1015.85 1016.27 1016.69 1017.11 1017.50 1017.85 1018.13 1018.33 1018.46 1018.51 1018.51 1018.48 1018.44 1018.41 1018.40 1018.42 1018.47 1018.53 1018.58 1018.61 1018.60 1018.53 1018.40 1018.20 1017.95 1017.63 1017.26 1016.84 1016.38 1015.87 1015.32 1014.72 1014.08 1013.41 1012.71
Thickness
5660 5656 5653 5649 5647 5644 5641 5638 5635 5632 5629 5627 5624 5621 5619 5617 5614 5611 5609 5606 5604 5601 5599 5597 5595 5593 5591 5590 5588 5586 5585 5584 5584 5583 5583 5584 5584 5585 5585 5586 5587 5589 5590
5656 5652 5648 5644 5641 5638 5635 5632 5628 5625 5622 5619 5616 5614 5611 5608 5606 5603 5600 5598 5595 5592 5589 5586 5584 5582 5581 5579 5577 5575 5574 5573 5572 5572 5572 5572 5572 5573 5574 5575 5576 5578 5579
5652 5648 5643 5639 5636 5632 5629 5625 5621 5618 5615 5612 5608 5606 5603 5600 5597 5595 5592 5588 5585 5582 5579 5576 5573 5571 5569 5567 5566 5565 5563 5562 5561 5561 5561 5561 5561 5561 5562 5564 5565 5566 5568
5648 5643 5638 5634 5630 5626 5622 5618 5614 5610 5606 5602 5600 5597 5594 5592 5589 5586 5583 5579 5575 5571 5568 5565 5562 5559 5557 5556 5554 5553 5552 5551 5551 5550 5550 5550 5550 5550 5551 5552 5554 5555 5557
5643 5639 5633 5629 5624 5620 5615 5611 5606 5602 5597 5594 5591 5588 5585 5582 5579 5576 5573 5569 5565 5561 5557 5554 5550 5548 5546 5544 5543 5542 5541 5540 5540 5539 5539 5539 5539 5539 5540 5541 5542 5544 5546
5639 5633 5628 5623 5618 5613 5608 5603 5598 5593 5589 5585 5582 5578 5575 5572 5569 5566 5562 5558 5554 5550 5547 5543 5540 5537 5534 5533 5531 5530 5530 5529 5529 5528 5528 5527 5528 5528 5529 5530 5531 5533 5534
5634 5628 5622 5616 5611 5606 5601 5596 5591 5585 5580 5576 5571 5567 5564 5562 5559 5555 5551 5548 5544 5540 5536 5532 5529 5526 5524 5521 5520 5519 5518 5518 5518 5517 5517 5517 5517 5517 5518 5519 5520 5521 5523
5629 5623 5617 5611 5605 5599 5593 5588 5583 5577 5571 5567 5561 5555 5550 5549 5547 5545 5540 5536 5533 5529 5525 5522 5518 5516 5513 5511 5509 5508 5507 5507 5506 5506 5506 5506 5506 5507 5507 5508 5509 5510 5511
5623 5618 5612 5605 5599 5593 5587 5581 5576 5570 5563 5557 5553 5547 5540 5537 5533 5532 5529 5526 5522 5518 5514 5511 5508 5506 5503 5501 5499 5497 5496 5496 5495 5496 5496 5495 5495 5495 5496 5496 5497 5498 5499
5618 5612 5606 5600 5593 5587 5581 5576 5570 5564 5557 5550 5544 5540 5534 5529 5523 5520 5518 5515 5512 5508 5505 5502 5499 5496 5494 5491 5489 5487 5486 5485 5485 5485 5484 5484 5484 5484 5484 5484 5484 5485 5485
5611 5606 5600 5594 5587 5581 5575 5570 5563 5558 5552 5545 5538 5532 5526 5519 5514 5508 5505 5504 5501 5499 5496 5493 5490 5487 5484 5482 5479 5477 5476 5475 5474 5473 5472 5472 5471 5471 5471 5470 5470 5471 5471
5604 5599 5593 5588 5582 5576 5569 5563 5558 5551 5545 5539 5532 5526 5520 5513 5506 5499 5494 5492 5490 5490 5487 5484 5481 5478 5475 5472 5469 5467 5465 5463 5462 5461 5459 5458 5457 5457 5456 5455 5455 5454 5454
5597 5593 5587 5582 5576 5570 5564 5557 5551 5545 5539 5532 5526 5519 5514 5508 5502 5494 5488 5483 5480 5480 5478 5476 5473 5469 5466 5463 5459 5456 5453 5451 5449 5448 5446 5444 5443 5441 5439 5438 5438 5437 5436
5595 5589 5583 5576 5571 5564 5558 5551 5544 5538 5532 5525 5519 5513 5507 5501 5495 5488 5481 5474 5470 5468 5466 5465 5464 5460 5456 5452 5449 5445 5442 5438 5436 5434 5432 5429 5426 5424 5422 5420 5418 5417 5416
5589 5583 5577 5571 5564 5558 5551 5544 5537 5531 5525 5518 5512 5506 5499 5494 5487 5481 5474 5467 5459 5456 5457 5456 5452 5451 5446 5441 5437 5433 5429 5425 5422 5419 5416 5412 5409 5406 5403 5400 5398 5396 5395
5584 5577 5570 5564 5558 5551 5545 5538 5531 5524 5517 5511 5504 5498 5492 5486 5480 5473 5466 5459 5453 5447 5445 5447 5442 5439 5434 5429 5424 5420 5415 5411 5406 5402 5398 5395 5391 5387 5384 5380 5377 5375 5373
5578 5571 5565 5558 5551 5544 5538 5531 5524 5517 5510 5503 5497 5491 5485 5479 5471 5465 5458 5451 5444 5437 5435 5439 5432 5427 5421 5415 5410 5405 5399 5394 5389 5384 5381 5377 5373 5369 5365 5361 5357 5354 5352
5572 5566 5559 5552 5545 5538 5531 5524 5517 5510 5503 5496 5490 5483 5477 5470 5463 5456 5449 5443 5436 5429 5423 5423 5421 5414 5407 5401 5396 5390 5384 5378 5373 5369 5365 5361 5356 5351 5347 5343 5340 5336 5334
5565 5559 5552 5545 5538 5531 5524 5517 5510 5503 5496 5490 5483 5475 5469 5461 5454 5448 5441 5434 5427 5421 5413 5408 5407 5401 5394 5387 5381 5375 5369 5363 5358 5353 5349 5344 5339 5334 5330 5326 5323 5320 5318
5558 5551 5545 5539 5532 5524 5517 5510 5502 5495 5488 5481 5475 5467 5460 5453 5446 5439 5432 5424 5417 5409 5402 5395 5391 5386 5379 5372 5363 5358 5355 5349 5344 5338 5332 5327 5323 5319 5314 5310 5307 5305 5302
5551 5544 5537 5530 5523 5516 5509 5502 5494 5487 5479 5472 5465 5458 5451 5444 5437 5430 5423 5414 5405 5397 5389 5382 5377 5371 5364 5355 5347 5342 5339 5336 5332 5324 5319 5313 5307 5303 5299 5295 5292 5290 5289
5542 5535 5528 5521 5515 5509 5502 5495 5487 5479 5471 5464 5456 5449 5442 5434 5427 5421 5413 5405 5396 5386 5377 5369 5363 5356 5350 5341 5334 5328 5322 5320 5319 5313 5304 5301 5294 5291 5287 5283 5280 5280 5279
5532 5526 5519 5513 5506 5500 5494 5488 5480 5471 5463 5455 5447 5439 5432 5424 5417 5408 5401 5393 5384 5374 5366 5358 5350 5343 5335 5329 5321 5315 5309 5304 5301 5296 5289 5289 5284 5280 5277 5273 5271 5271 5271
5523 5517 5510 5504 5497 5491 5485 5478 5471 5462 5454 5446 5438 5430 5421 5413 5404 5396 5388 5380 5371 5362 5353 5344 5337 5330 5323 5315 5307 5302 5297 5293 5289 5282 5276 5274 5274 5271 5270 5266 5264 5264 5264
5514 5507 5501 5494 5487 5480 5475 5468 5461 5451 5443 5435 5427 5419 5410 5401 5394 5386 5378 5369 5360 5351 5342 5334 5326 5318 5311 5303 5296 5289 5284 5278 5276 5273 5266 5261 5263 5261 5261 5260 5259 5258 5257
5505 5498 5490 5484 5477 5470 5464 5457 5450 5441 5433 5425 5417 5407 5399 5390 5382 5373 5363 5354 5346 5339 5330 5322 5313 5304 5296 5289 5283 5276 5269 5264 5262 5260 5258 5253 5252 5250 5252 5254 5252 5251 5251